Flight Track Log - Related Links

Times and Time Zones

All times are in EDT time to prevent confusion due to time zone crossing. See the SWA471 flight status page for this flight to view local times or setup timezone preferences in your user account.

Time Position Orientation Groundspeed Altitude Reporting Facility
EDT Latitude Longitude Course Direction KTS MPH feet Rate Location/Type
Fri 21:27:17 39.2833 -94.6333 103° East 197 227 3,800  Level Kansas City TRACON
Fri 21:28:20 39.2789 -94.5597 94° East 224 258 7,700 2,810 Climbing Kansas City Center
Fri 21:29:23 39.2156 -94.5525 175° South 278 320 9,700 2,952 Climbing Kansas City Center
Fri 21:30:24 39.1233 -94.6119 207° Southwest 331 381 13,800 3,322 Climbing Kansas City Center
Fri 21:31:24 39.0508 -94.6719 213° Southwest 323 372 16,400 3,171 Climbing Kansas City Center
Fri 21:32:27 38.9661 -94.7436 213° Southwest 324 373 20,300 3,463 Climbing Kansas City Center
Fri 21:33:27 38.9125 -94.8189 228° Southwest 298 343 23,500 2,164 Climbing Kansas City Center
Fri 21:34:29 38.8600 -94.9028 231° Southwest 310 357 24,700 1,548 Climbing Kansas City Center
Fri 21:35:31 38.7947 -95.0200 234° Southwest 358 412 26,700 1,951 Climbing Kansas City Center
Fri 21:36:32 38.7300 -95.1117 228° Southwest 365 420 28,700 1,377 Climbing Kansas City Center
Fri 21:37:33 38.6250 -95.1444 194° South 405 466 29,500 1,736 Climbing Kansas City Center
Fri 21:38:33 38.5008 -95.1789 192° South 407 468 32,200 2,300 Climbing Kansas City Center
Fri 21:39:33 38.3994 -95.2058 192° South 389 448 34,100 1,258 Climbing Kansas City Center
Fri 21:40:37 38.2958 -95.2325 191° South 391 450 34,800 919 Climbing Kansas City Center
Fri 21:41:37 38.1686 -95.2689 193° South 410 472 36,000 590 Climbing Kansas City Center
Fri 21:42:39 38.0614 -95.2972 192° South 413 475 36,000  Level Kansas City Center
Fri 21:43:39 37.9344 -95.3319 192° South 415 478 36,000  Level Kansas City Center
Fri 21:44:40 37.8319 -95.3578 191° South 414 476 36,000  Level Kansas City Center
Fri 21:45:43 37.7189 -95.3883 192° South 414 476 36,000  Level Kansas City Center
Fri 21:46:44 37.6047 -95.4181 192° South 416 479 36,000  Level Kansas City Center
Fri 21:47:43 37.4908 -95.4481 192° South 418 481 36,000  Level Kansas City Center
Fri 21:48:47 37.3547 -95.4858 192° South 416 479 36,000  Level Kansas City Center
Fri 21:49:47 37.2358 -95.4861 180° South 427 491 36,000  Level Kansas City Center
Fri 21:50:48 37.1142 -95.4753 176° South 436 502 36,000  Level Kansas City Center
Fri 21:51:49 36.9936 -95.4644 176° South 434 499 36,000  Level Kansas City Center
Fri 21:52:50 36.8769 -95.4528 175° South 425 489 36,000  Level Kansas City Center
Fri 21:53:50 36.7603 -95.4447 177° South 420 483 36,000  Level Kansas City Center
Fri 21:54:54 36.6433 -95.4339 176° South 420 483 36,000  Level Kansas City Center
Fri 21:55:55 36.5153 -95.4222 176° South 418 481 36,000  Level Kansas City Center
Fri 21:56:54 36.3975 -95.4117 176° South 420 483 36,000  Level Kansas City Center
Fri 21:57:57 36.2792 -95.3992 175° South 422 486 36,000  Level Kansas City Center
Fri 21:58:57 36.1619 -95.3897 176° South 423 487 36,000  Level Kansas City Center
Fri 21:59:58 36.0458 -95.3806 176° South 423 487 36,000  Level Kansas City Center
Fri 22:00:58 35.9283 -95.3717 176° South 421 484 36,000  Level Kansas City Center
Fri 22:02:02 35.8103 -95.3611 176° South 423 487 36,000 -768 Level Kansas City Center
Fri 22:03:03 35.6939 -95.3514 176° South 421 484 34,400 -2,430 Descending Kansas City Center
Fri 22:04:03 35.5783 -95.3417 176° South 418 481 31,100 -1,645 Descending Kansas City Center
Fri 22:05:07 35.4411 -95.3344 178° South 415 478 31,000 -48 Descending Fort Worth Center
Fri 22:06:07 35.3200 -95.3222 175° South 427 491 31,000  Level Fort Worth Center
Fri 22:07:07 35.1947 -95.3125 176° South 438 504 31,000 -50 Level Fort Worth Center
Fri 22:08:07 35.0714 -95.3031 176° South 443 510 30,900 -500 Descending Fort Worth Center
Fri 22:09:07 34.9617 -95.3514 200° South 426 490 30,000 -450 Descending Fort Worth Center
Fri 22:10:07 34.8583 -95.4119 206° Southwest 416 479 30,000  Level Fort Worth Center
Fri 22:11:07 34.7531 -95.4750 206° Southwest 422 486 30,000  Level Fort Worth Center
Fri 22:12:07 34.6558 -95.5303 205° Southwest 427 491 30,000  Level Fort Worth Center
Fri 22:13:07 34.5358 -95.5986 205° Southwest 432 497 30,000 -350 Level Fort Worth Center
Fri 22:14:07 34.4325 -95.6586 206° Southwest 426 490 29,300 -1,150 Descending Fort Worth Center
Fri 22:15:07 34.3269 -95.7211 206° Southwest 426 490 27,700 -1,300 Descending Fort Worth Center
Fri 22:16:07 34.2233 -95.7833 206° Southwest 417 480 26,700 -1,000 Descending Fort Worth Center
Fri 22:17:07 34.1239 -95.8406 205° Southwest 412 474 25,700 -950 Descending Fort Worth Center
Fri 22:18:07 34.0389 -95.8869 204° Southwest 389 448 24,800 -950 Descending Fort Worth Center
Fri 22:19:07 33.9436 -95.9439 206° Southwest 382 440 23,800 -1,000 Descending Fort Worth Center
Fri 22:20:07 33.8378 -96.0056 206° Southwest 382 440 22,800 -1,100 Descending Fort Worth Center
Fri 22:21:07 33.7528 -96.0544 206° Southwest 382 440 21,600 -1,950 Descending Fort Worth Center
Fri 22:22:07 33.6511 -96.1133 206° Southwest 372 428 18,900 -2,550 Descending Fort Worth Center
Fri 22:23:07 33.5722 -96.1594 206° Southwest 364 419 16,500 -2,600 Descending Fort Worth Center
Fri 22:24:07 33.4747 -96.2131 205° Southwest 359 413 13,700 -2,200 Descending Fort Worth Center
Fri 22:25:07 33.4064 -96.2639 212° Southwest 338 389 12,100 -1,250 Descending Fort Worth Center
Fri 22:26:07 33.3342 -96.3567 227° Southwest 338 389 11,200 -950 Descending Fort Worth Center
Fri 22:27:07 33.2764 -96.4319 227° Southwest 350 403 10,200 -750 Descending Fort Worth Center
Fri 22:28:07 33.2122 -96.5169 228° Southwest 326 375 9,700 -1,150 Descending Fort Worth Center
Fri 22:29:07 33.1625 -96.5822 228° Southwest 278 320 7,900 -1,450 Descending Fort Worth Center
Fri 22:30:07 33.1192 -96.6397 228° Southwest 264 304 6,800 -1,100 Descending Fort Worth Center
Fri 22:31:07 33.0756 -96.6944 226° Southwest 235 270 5,700 -1,190 Descending Fort Worth Center
Fri 22:32:08 33.0333 -96.7500 228° Southwest 195 224 4,400 -939 Descending Dallas / Fort Worth TRACON
Fri 22:33:02 33.0000 -96.7833 220° Southwest 193 222 3,900 -737 Descending Dallas / Fort Worth TRACON
Fri 22:34:02 32.9667 -96.8333 232° Southwest 183 211 3,000 -700 Descending Dallas / Fort Worth TRACON
Fri 22:35:02 32.9500 -96.8667 239° Southwest 133 153 2,500 -600 Descending Dallas / Fort Worth TRACON
Fri 22:36:02 32.9167 -96.8833 203° Southwest 132 152 1,800 -551 Descending Dallas / Fort Worth TRACON
Fri 22:38:07 32.8553 -96.8767 175° South 112 129 800 -480 Descending Fort Worth Center
Fri 22:40:00 32.8471 -96.8518 228° Southwest  Level Estimated

Login

Don't have an account? Register now (free) for customized features, flight alerts, and more!